sat.trackr.live / text

‹ back to catalog

STARLINK-37172

NORAD 68395 · 2026-063R

PAYLOAD ACTIVE UNKNOWN

§ Identity

Operator
Country
US
Launch date
2026-03-26
Launch site
AFWTR
Launch vehicle
Mass (kg)
RCS (m²)

Purposes: comms

External: N2YO · Heavens-Above · Gunter

§ Orbital elements

Epoch: 2026-05-25T02:46:19.606944Z

Period
93.91 min
Inclination
97.2857°
Eccentricity
0.0000986
Mean motion
15.33458157 rev/d
Perigee alt
464.8 km
Apogee alt
466.2 km
Semi-major
6,843.6 km
B*
5.4557e-4
RAAN
287.6184°
Arg perigee
78.8973°
Mean anomaly
281.2380°
Rev number
960

§ Raw data

STARLINK-371721 68395U 26063R   26145.11550471  .00017586  00000+0  54557-3 0  99952 68395  97.2857 287.6184 0000986  78.8973 281.2380 15.33458157  9603

JSON: /api/v1/satellites/68395 · /tle

For live sub-satellite position, see the globe view (requires WebGL).

§ Visibility from observer

Set your observer location to see the next 7 days of passes ≥ 10°. The values pass through the URL so the page stays shareable.

No JS? Fill the form by hand. The geolocation button needs JavaScript.